Powrót do katalogu

CHINASAT 22A

AktywnyŁącznośćGEO
NORAD 29398·PAYLOAD·🇨🇳 China

Wystrzelony Sep 12, 2006 z Xichang Satellite Launch Center

Loading…

TLE

ŚwieżeSource: Space-Track

Epoka: Sep 14, 2026, 07:31 UTC

1 29398U 06038A   26257.31347115 -.00000370  00000-0  00000-0 0  9996
2 29398  11.6509  36.5804 0003931 153.8212  34.3919  1.00085624 73273

Śledź CHINASAT 22A w czasie rzeczywistym z AllMySat

Download on the App Store